GFSSGP_850_rhum_336.txt.gz
RH
93 72 84 94 84 79 77 66 53 54 53 48 50 54 66 82 70 60 59 46 51 55 64 65 64 64 64 63 59 63 60 57 63 76 63 61 61 65 67 65 71 69 77 59 52 61 71 57 53
93 99 79 87 79 81 78 59 62 58 57 52 57 60 71 84 79 63 55 56 51 53 61 66 66 66 65 66 68 63 61 49 70 72 64 56 61 62 62 67 56 59 54 68 64 69 60 60 74
100 100 92 78 79 78 77 59 59 55 50 52 62 65 70 80 71 57 58 56 53 56 65 71 70 68 67 71 68 64 54 61 63 62 62 55 58 58 55 78 44 52 68 71 57 56 69 75 72
84 72 78 74 64 58 62 58 48 49 47 51 56 71 67 72 58 58 52 53 56 60 62 70 66 70 70 70 65 53 60 63 61 57 57 56 57 56 57 52 64 50 61 54 64 74 75 79 81
76 70 76 64 57 55 54 48 46 50 54 55 51 75 83 69 56 55 55 60 60 56 60 62 62 66 59 61 60 82 80 56 60 65 61 56 57 48 75 75 54 47 54 55 77 77 74 77 72
78 72 70 65 52 48 52 49 46 52 57 60 67 74 79 74 57 52 54 58 58 57 62 63 63 64 61 59 61 83 68 60 80 80 60 60 55 81 64 59 53 54 56 56 76 76 72 75 77
81 84 62 53 55 54 56 46 50 54 57 60 60 76 81 73 57 50 55 57 58 60 62 63 62 59 60 54 59 83 77 69 65 63 47 44 61 82 65 70 70 58 51 48 67 65 62 70 69
74 83 49 49 54 49 47 44 48 52 53 52 47 72 76 67 50 51 55 56 58 61 63 66 64 59 54 51 55 71 75 71 73 71 54 80 71 71 66 60 59 78 58 48 62 65 68 77 76
68 61 56 48 48 48 46 46 47 45 52 52 52 48 50 47 52 56 53 53 55 56 58 58 59 62 58 51 54 58 77 64 71 74 64 72 62 70 72 54 52 54 62 51 55 63 64 79 82
65 63 47 40 39 48 43 43 45 48 51 49 53 50 54 52 57 61 50 44 45 48 56 56 63 64 60 50 53 58 55 59 58 68 64 73 73 75 72 57 56 52 49 43 47 54 64 63 70
64 48 39 36 36 37 42 43 42 48 52 48 54 53 56 59 64 64 50 43 39 42 52 55 56 57 53 50 55 55 42 56 54 60 66 70 69 69 70 60 65 64 48 46 37 39 50 62 59
47 38 36 36 39 40 43 42 42 43 42 41 41 47 54 59 63 61 52 48 47 45 40 50 52 52 53 58 47 41 34 51 62 65 64 64 62 65 66 64 64 68 60 44 41 41 52 69 57
38 37 34 36 35 40 41 42 42 42 42 41 44 51 54 58 62 63 57 56 53 53 38 43 46 48 52 51 47 44 41 42 64 72 67 72 55 56 61 61 67 72 75 75 64 55 63 68 71
32 33 34 33 35 37 42 43 40 42 43 44 46 52 55 54 58 63 63 61 61 60 45 54 56 50 54 52 46 47 52 59 74 78 77 74 73 62 60 66 76 78 77 77 72 74 73 72 72
30 33 32 34 36 40 39 45 45 40 43 45 49 53 55 55 59 57 57 58 60 57 53 51 61 62 64 66 67 60 62 72 71 68 81 73 74 77 76 75 78 78 74 73 74 71 74 73 65
34 34 36 31 35 37 37 45 45 41 41 46 48 52 56 57 53 54 55 54 56 59 56 57 62 60 63 63 70 73 73 76 79 76 72 73 76 77 76 76 76 78 78 74 73 70 74 76 73
36 41 40 34 35 41 41 46 46 42 40 42 44 45 48 51 54 51 51 51 52 54 57 57 62 63 64 65 68 71 75 70 73 68 70 74 75 78 78 75 81 83 71 77 78 76 79 78 80
36 42 38 35 36 37 44 47 48 44 41 40 39 40 42 43 42 46 50 48 50 51 53 55 58 63 67 68 68 71 73 71 70 72 72 74 75 76 77 78 79 80 76 76 75 75 79 81 84
24 36 37 35 35 35 42 43 51 45 44 44 41 38 38 39 40 42 43 42 47 51 52 52 56 60 64 68 69 69 68 68 68 72 68 73 75 77 77 80 80 80 77 76 80 79 78 76 82
22 29 38 36 36 30 40 40 43 44 44 43 41 39 37 38 38 39 40 41 42 46 49 50 51 57 60 61 64 65 66 69 66 70 72 74 77 80 79 78 79 79 76 71 73 78 80 81 83
15 30 33 32 37 33 38 43 46 43 42 41 41 39 36 36 36 37 38 39 39 44 47 49 49 52 56 56 62 67 72 69 68 65 65 66 70 74 78 79 80 80 74 74 75 78 82 86 84
10 19 24 42 41 39 33 48 35 49 46 41 40 39 37 34 34 36 37 36 39 41 45 47 49 51 54 57 60 61 57 51 59 61 63 66 68 71 73 75 78 78 78 79 83 78 80 89 87
10 8 20 34 27 15 26 30 23 44 53 46 39 37 34 31 31 32 34 34 34 39 42 43 47 52 56 57 58 60 58 53 53 54 61 62 66 69 69 69 72 73 78 78 77 76 78 76 77
10 10 15 18 17 16 15 32 18 47 37 39 39 38 34 31 30 32 27 33 37 38 39 43 44 48 53 57 59 60 58 56 55 48 52 60 64 68 69 71 71 74 80 78 80 80 85 91 87
10 14 19 16 17 16 17 21 19 19 21 33 37 38 37 34 31 30 32 30 32 38 40 41 43 48 52 53 55 60 61 64 64 60 58 61 63 66 70 70 72 74 76 76 75 71 69 75 79
10 13 18 14 18 17 21 20 19 39 37 29 29 30 32 34 34 31 30 33 33 36 40 44 47 52 55 53 56 60 62 53 60 64 60 63 66 67 70 67 63 69 76 74 71 58 57 62 70
10 11 12 19 21 24 24 39 36 38 36 36 36 35 34 33 33 36 34 35 34 39 45 47 52 57 50 47 48 52 49 50 56 56 61 61 64 70 71 72 70 69 68 68 70 56 50 62 64
8 10 11 18 18 21 33 36 54 38 33 33 33 35 30 30 36 39 41 41 43 46 48 55 52 39 28 25 48 52 32 35 49 62 62 58 61 65 71 72 73 71 72 72 70 66 70 67 56
9 10 16 18 28 39 51 52 36 43 37 33 28 25 33 41 39 39 38 50 42 38 36 46 50 48 42 32 36 40 35 34 40 60 64 69 75 80 80 72 76 81 83 77 65 69 84 71 58
8 9 14 16 16 37 46 38 23 42 37 29 29 37 44 39 34 34 38 45 47 46 47 47 50 51 48 49 44 58 54 38 44 60 60 66 74 79 76 83 85 81 78 64 61 59 71 75 57

GFSSGP_850_rhum_339.txt.gz
RH
92 92 92 92 71 56 59 53 47 47 45 48 50 52 56 70 58 54 56 51 54 58 66 62 68 66 62 59 63 71 68 62 73 76 64 67 68 80 78 72 61 74 63 43 39 52 54 68 64
97 80 86 91 58 55 60 50 52 43 50 51 59 62 66 71 90 69 59 51 53 59 62 62 67 66 64 60 60 62 55 64 78 81 82 77 87 87 84 75 70 64 45 62 72 71 53 66 72
99 99 96 62 60 62 60 52 51 52 52 51 59 64 65 74 89 76 54 49 51 58 62 62 68 72 67 67 67 77 52 72 76 79 74 79 82 74 68 46 70 67 64 72 79 76 65 71 79
100 89 86 56 55 55 50 48 48 48 50 52 51 55 75 81 69 61 57 48 49 57 67 66 70 70 71 69 75 67 72 80 82 78 82 84 83 76 77 58 56 77 72 55 60 66 73 73 68
92 83 59 51 52 48 46 46 45 45 49 49 48 59 72 79 65 53 52 52 57 61 67 67 67 69 69 66 67 76 79 75 77 83 72 64 86 75 63 78 64 76 52 68 75 75 75 74 73
90 77 52 49 48 48 45 46 46 48 52 54 52 61 80 82 66 58 58 60 60 57 62 64 65 67 71 65 78 78 73 80 77 77 72 58 54 72 74 63 68 72 66 77 74 72 71 74 70
75 59 48 46 53 53 46 45 45 48 43 50 56 54 84 93 67 58 62 60 59 60 62 64 80 74 74 59 75 78 69 66 75 71 54 65 77 71 64 73 74 76 67 75 77 79 84 75 68
79 57 43 43 48 51 44 44 48 41 49 54 51 49 64 77 60 58 60 58 59 62 62 63 65 69 58 52 64 74 71 71 74 57 47 66 77 71 75 77 75 64 53 63 69 69 79 75 77
66 41 42 39 42 47 42 44 47 47 48 50 57 54 53 53 55 55 56 56 57 61 64 65 63 59 52 49 56 65 64 64 71 65 67 74 72 75 61 60 65 72 80 49 65 70 79 76 75
48 48 42 35 34 42 41 42 44 46 46 52 60 52 48 52 55 52 55 64 51 51 58 62 62 62 57 50 52 54 76 68 64 77 61 63 69 70 63 58 61 50 48 46 52 67 74 71 71
53 37 35 34 35 40 40 41 42 44 45 48 54 62 52 50 60 58 56 54 44 49 53 57 64 64 61 50 52 57 54 58 56 61 65 70 70 73 74 61 68 63 52 50 37 54 61 65 74
34 35 35 38 41 40 39 40 42 41 41 43 46 48 53 56 62 58 51 44 42 42 51 56 56 57 54 51 55 55 41 58 56 58 64 60 65 68 69 67 66 68 62 47 46 42 52 68 70
32 33 35 38 39 39 41 40 40 41 43 47 45 50 51 57 59 57 53 48 50 44 41 48 51 51 53 57 49 44 36 51 68 62 61 62 59 63 67 64 69 76 78 74 59 55 66 72 74
32 31 33 37 39 40 39 41 39 45 46 52 46 53 51 52 56 58 56 54 54 48 36 41 43 48 51 52 48 44 46 42 60 73 76 76 73 59 62 66 77 78 80 80 72 70 73 74 75
30 29 28 34 38 38 39 44 39 44 49 54 56 60 62 52 54 55 54 57 57 55 42 48 54 49 52 53 50 45 53 54 67 76 81 76 77 79 74 74 78 82 78 76 72 74 76 77 77
27 27 32 30 36 38 36 37 40 46 48 51 55 61 65 60 51 52 53 53 58 58 52 50 58 55 60 64 66 64 65 71 74 74 72 77 74 78 78 76 74 79 80 78 74 78 72 75 78
30 32 31 31 33 34 34 38 42 44 41 46 53 54 58 60 54 52 53 54 54 57 57 55 59 61 62 64 69 72 76 76 79 75 72 72 75 78 79 75 75 80 82 72 77 73 72 73 78
21 32 32 29 28 32 36 33 40 42 40 41 45 46 52 56 44 44 48 51 54 54 56 57 58 62 65 66 68 70 72 72 68 70 70 70 74 78 78 77 77 78 81 74 74 76 76 76 79
17 21 24 30 28 30 31 32 35 39 41 40 41 43 44 45 40 41 41 44 48 52 54 56 57 57 65 67 66 67 66 68 68 68 66 68 71 77 78 78 79 79 80 79 79 76 77 78 79
18 20 21 33 31 28 33 31 32 38 38 39 38 40 41 41 45 40 41 42 42 42 45 51 53 56 60 65 67 66 62 64 68 67 69 70 71 73 78 79 80 78 80 77 74 78 80 79 82
14 15 26 27 32 29 30 26 33 33 37 40 39 38 37 37 40 43 39 40 40 40 41 44 49 52 55 61 64 66 66 64 64 62 64 65 66 69 68 75 78 81 82 82 82 83 86 82 84
10 14 23 31 27 26 28 18 27 31 36 39 37 38 37 38 38 38 38 38 38 37 38 42 46 50 52 57 60 61 60 58 57 56 62 62 65 68 70 70 72 74 78 78 80 82 86 86 83
11 17 25 29 22 17 29 21 18 27 31 35 36 36 35 36 38 37 33 34 35 36 36 38 43 48 49 52 58 60 63 61 62 62 64 58 62 64 67 69 70 71 74 75 78 79 82 82 79
9 10 14 16 14 16 15 21 11 13 20 21 30 34 34 33 36 31 32 32 34 35 36 38 40 44 48 51 56 57 60 62 63 63 59 54 59 62 65 68 71 70 72 73 74 74 74 76 76
8 8 12 13 16 12 14 24 13 14 16 21 24 32 35 35 35 34 32 32 30 32 34 38 39 42 45 50 53 57 59 61 55 52 54 53 55 58 65 69 69 70 66 66 73 75 77 77 80
9 8 11 16 13 13 19 17 11 26 30 29 26 27 32 34 36 36 33 31 32 32 32 37 38 41 44 47 49 52 54 58 53 46 46 49 50 55 60 66 69 69 68 67 68 69 71 69 58
10 10 8 11 15 12 15 21 24 29 26 32 30 32 28 24 35 33 38 35 34 35 35 34 38 39 41 44 48 50 52 56 62 59 58 63 63 57 56 60 64 68 71 70 70 72 74 73 73
8 8 9 12 18 18 20 28 18 28 27 30 30 28 32 30 34 36 37 39 40 43 41 38 39 41 26 26 39 47 54 58 60 65 55 56 62 65 70 71 72 67 70 75 80 79 64 70 87
9 9 11 11 15 15 18 17 24 28 27 26 27 28 32 40 42 39 38 43 46 45 44 43 43 41 36 29 33 41 42 44 65 51 43 46 60 68 72 75 76 75 77 81 79 59 60 73 82
8 8 8 9 18 24 28 16 21 26 24 24 24 30 38 28 33 35 37 42 45 44 44 46 45 44 45 42 47 49 43 51 58 57 47 54 66 68 72 75 79 80 77 75 68 59 58 65 67

GFSSGP_850_rhum_342.txt.gz
RH
84 94 94 97 53 34 40 43 36 36 38 39 43 42 44 49 48 57 52 60 67 74 87 82 70 60 60 74 74 69 67 76 78 78 80 76 78 78 70 65 73 75 61 60 73 61 78 72 74
89 73 91 67 43 34 44 37 37 33 38 42 48 50 50 55 58 57 57 62 67 72 75 90 74 65 61 61 63 58 61 69 81 77 76 79 81 79 74 72 70 55 68 71 63 58 66 66 68
93 90 90 43 35 42 45 39 39 39 42 43 49 43 46 58 54 53 56 62 67 73 72 83 69 67 67 66 70 65 64 77 77 76 75 83 83 78 71 68 69 67 74 75 61 74 74 72 65
97 89 67 41 42 41 40 39 39 40 42 42 37 44 56 54 57 58 62 62 69 73 75 66 68 69 69 68 77 62 79 76 76 75 79 78 74 78 49 58 78 71 60 65 73 67 70 70 68
97 68 37 35 41 38 34 36 35 34 38 38 32 41 55 70 67 64 63 64 71 75 83 88 69 73 73 68 68 75 73 75 76 80 81 77 65 54 71 60 77 64 77 70 76 78 76 73 70
69 54 30 34 41 38 35 35 34 35 40 38 36 43 62 72 65 65 64 67 71 74 81 88 68 68 63 69 82 72 76 77 74 76 66 51 77 71 73 72 68 58 74 77 79 76 79 74 71
52 30 29 29 39 42 39 36 34 32 34 33 34 37 59 66 67 68 68 69 72 84 92 92 89 74 62 72 74 71 73 80 76 57 66 79 68 68 70 71 73 70 77 74 73 82 76 72 69
50 29 30 30 33 41 35 36 33 31 34 37 36 37 53 66 71 67 68 68 78 86 84 88 95 87 92 92 76 74 70 67 63 43 58 72 74 75 78 73 73 70 56 67 67 77 76 77 74
49 24 28 29 31 36 35 34 37 35 38 41 40 37 51 67 66 63 65 70 79 82 82 80 84 93 95 95 82 74 64 68 63 60 72 79 81 85 90 78 75 75 64 56 62 69 73 73 70
30 23 28 26 26 31 32 33 36 33 34 39 49 55 62 66 63 56 57 61 70 74 80 80 81 80 86 83 90 96 93 97 92 94 98 87 86 92 86 81 63 59 57 48 57 65 71 82 83
29 28 27 26 25 30 32 34 34 31 33 36 45 56 63 61 58 51 50 52 59 72 76 85 88 92 81 83 88 83 85 86 90 96 98 97 94 90 82 87 72 83 62 92 49 73 64 71 86
23 28 28 29 31 30 29 33 32 33 32 35 43 50 54 55 54 53 50 52 58 67 73 75 83 93 84 83 80 83 82 83 79 91 98 96 87 91 94 88 94 95 73 66 87 77 79 66 74
20 26 29 30 31 30 32 31 32 34 34 35 42 49 49 48 54 56 54 55 55 59 66 69 82 78 88 68 86 77 75 80 81 89 88 87 85 91 91 90 89 92 90 86 56 89 87 74 77
24 25 27 30 32 32 31 32 31 38 33 37 44 46 47 49 52 59 60 57 57 55 56 65 77 54 81 90 63 81 75 72 84 89 90 76 87 91 87 88 88 92 89 91 93 72 74 80 75
24 23 24 27 31 32 32 35 29 38 35 38 41 43 45 49 52 58 61 59 58 56 57 62 73 75 53 58 51 81 76 67 76 87 77 71 76 78 78 89 89 90 91 81 92 75 72 78 77
22 21 21 25 29 32 30 36 33 36 33 35 37 42 46 49 50 56 59 62 64 60 63 65 66 69 70 80 70 80 80 79 81 84 88 77 70 72 78 92 86 86 90 90 84 80 78 74 79
20 17 19 23 25 24 26 31 33 33 30 30 35 39 43 48 52 54 58 62 61 67 71 65 66 73 78 71 83 84 83 84 85 86 86 89 72 73 76 85 86 88 88 84 85 88 84 78 78
16 14 17 18 22 25 24 23 31 31 29 28 32 32 38 42 46 50 54 57 60 65 73 69 63 70 63 83 69 89 88 89 87 89 88 88 89 75 75 92 92 77 87 85 83 86 80 82 79
12 12 14 17 20 23 21 21 27 30 30 29 28 29 31 35 37 43 48 52 55 62 69 74 57 58 64 79 86 83 81 83 86 87 75 70 68 69 72 94 93 78 75 72 89 90 82 84 90
11 12 12 19 21 22 21 20 21 26 28 29 28 29 30 27 31 37 42 46 51 55 65 73 56 55 56 79 87 82 80 74 76 81 88 69 71 72 72 73 89 78 91 88 84 75 88 88 91
11 9 11 14 22 20 21 16 20 21 25 27 28 28 28 30 31 33 38 40 43 49 58 59 46 53 54 61 76 83 81 80 83 78 80 81 66 69 67 67 71 74 81 90 85 89 94 92 82
8 10 13 17 16 14 16 14 13 16 23 25 25 27 28 29 30 32 34 38 40 45 53 55 42 45 50 53 69 66 74 71 67 71 68 75 84 76 75 68 67 68 78 83 92 94 91 92 82
10 14 13 13 13 10 15 13 14 14 18 21 23 24 25 28 29 30 31 32 37 42 50 57 40 43 47 48 51 55 65 71 74 74 76 76 81 70 72 69 65 67 78 90 84 77 79 89 88
8 11 12 12 10 11 9 10 8 9 9 11 17 21 23 24 25 28 30 31 34 39 49 54 39 40 44 47 49 52 62 60 70 76 74 73 68 71 77 62 66 70 72 76 74 74 77 80 80
7 8 10 11 10 10 9 11 8 9 10 11 13 17 22 25 27 29 32 33 34 37 46 53 43 38 42 45 48 50 53 55 55 53 77 75 67 66 71 65 62 74 84 68 69 72 75 76 81
8 7 8 16 11 9 12 10 9 10 14 16 17 20 18 18 21 26 30 36 40 41 46 49 41 38 40 41 44 47 51 54 64 74 73 77 73 70 77 62 55 58 62 66 69 75 90 73 76
9 9 6 7 7 8 8 9 10 11 13 14 14 16 12 13 23 29 30 35 44 45 45 50 47 35 39 42 44 46 48 51 68 60 61 64 66 71 69 68 66 60 59 60 64 68 71 82 67
8 6 8 8 13 13 9 11 11 14 13 15 14 13 12 15 21 24 31 35 41 47 48 54 52 34 36 40 47 52 47 46 51 54 54 56 65 67 64 68 71 69 72 74 69 72 87 54 64
8 9 8 6 7 10 11 9 7 13 13 14 14 12 15 17 21 27 36 39 41 47 47 51 57 34 38 59 67 75 60 45 46 54 56 52 51 44 64 72 66 62 73 80 73 67 56 55 65
7 7 7 9 11 8 10 9 11 10 12 12 14 14 18 22 27 37 46 52 53 56 53 61 61 59 54 59 64 71 62 49 44 45 52 53 51 62 75 72 73 65 74 80 69 61 63 61 57

GFSSGP_850_rhum_345.txt.gz
RH
79 95 95 84 71 60 41 33 27 31 32 34 36 34 36 40 46 49 45 48 54 64 83 62 56 67 71 68 66 65 72 67 70 72 77 75 78 73 71 74 72 68 70 72 56 75 75 36 68
91 86 84 63 84 33 37 27 30 31 32 36 36 36 40 39 39 43 48 54 56 61 72 86 57 56 65 64 56 58 71 77 76 69 71 78 78 73 69 68 57 58 68 69 73 63 66 61 43
77 78 67 53 29 40 36 28 29 32 35 35 34 35 37 39 40 42 50 53 56 61 72 65 60 60 58 62 66 59 77 78 78 71 80 80 74 77 63 53 71 72 75 54 67 69 67 65 65
82 75 73 44 34 29 30 29 30 30 33 30 34 36 39 41 43 46 50 51 58 76 75 58 63 62 63 73 60 71 76 79 77 76 79 70 73 49 71 74 67 74 71 75 68 74 68 65 63
84 56 45 31 30 27 26 26 26 27 28 26 29 38 48 48 45 47 49 51 58 78 80 66 65 67 66 70 72 73 72 71 75 82 78 68 66 53 52 76 75 58 65 74 80 80 74 71 68
62 45 50 32 30 27 26 26 26 27 28 28 33 40 48 48 47 48 47 54 64 71 75 82 65 67 66 76 71 73 74 75 78 74 72 73 69 69 58 68 54 70 73 76 74 74 73 75 67
49 30 24 24 28 32 30 27 24 25 26 26 29 37 46 47 48 47 50 54 64 72 68 80 88 63 72 76 63 76 79 72 65 58 59 69 68 62 59 66 66 74 74 73 77 70 67 64 66
40 19 24 24 26 31 26 26 24 25 26 28 29 35 43 48 49 48 50 54 69 58 69 83 84 86 91 87 68 61 62 58 46 65 72 66 61 68 67 70 73 62 74 68 74 71 71 68 67
33 35 24 25 28 28 26 26 28 29 30 30 28 33 43 50 48 47 51 57 71 68 63 73 84 88 89 76 72 71 70 60 48 61 69 78 81 91 87 83 65 58 54 64 66 70 65 67 64
28 19 21 18 20 24 25 26 28 26 28 33 37 40 45 47 46 46 54 54 60 60 60 63 71 70 74 71 83 93 87 89 88 88 86 88 83 88 76 75 57 62 49 53 57 66 65 92 91
16 22 17 17 20 23 24 26 26 25 28 32 38 43 45 45 43 42 44 48 51 56 60 63 67 68 68 71 74 75 76 71 85 90 95 79 87 76 85 83 88 86 63 89 60 55 49 87 89
17 19 19 20 20 21 22 24 24 26 26 31 38 41 42 41 38 38 39 43 48 58 61 62 70 74 63 68 67 63 63 64 69 84 89 83 83 76 72 79 83 81 71 68 75 73 80 60 65
14 18 20 23 22 20 21 22 23 26 28 32 36 38 39 38 40 37 37 42 50 53 56 58 68 82 74 76 64 61 64 64 63 75 77 73 75 79 72 77 81 85 84 82 73 84 78 63 66
16 16 19 22 22 23 21 22 21 26 28 32 34 35 37 38 40 41 40 42 43 47 53 56 70 85 80 77 75 65 59 59 65 66 76 69 77 75 71 70 76 74 84 84 88 77 70 72 73
17 18 17 19 23 24 23 27 23 24 28 32 33 34 36 39 43 46 45 44 42 45 49 58 66 74 82 81 85 71 62 57 65 71 87 64 78 83 87 72 74 84 84 82 80 91 76 74 78
18 20 16 17 20 22 27 29 25 24 26 31 31 34 37 39 42 48 49 49 48 45 50 56 55 60 72 71 79 68 68 61 64 69 77 92 95 83 64 84 81 84 84 82 82 78 77 81 92
15 13 13 18 16 15 22 26 24 25 22 27 30 33 36 40 40 46 48 51 52 53 59 62 62 61 70 78 79 78 74 73 69 71 76 79 90 97 79 84 84 85 77 84 84 88 89 78 73
12 10 10 15 16 17 15 19 22 24 21 22 27 30 33 37 40 43 46 49 50 57 63 69 71 71 76 84 88 74 71 71 71 72 74 81 83 90 94 87 84 82 82 86 88 81 91 87 84
8 9 10 10 11 15 14 19 22 21 22 22 23 24 28 31 34 38 41 44 47 54 62 71 74 80 82 81 76 69 65 66 74 76 76 87 91 89 92 85 89 84 80 84 92 87 87 87 89
8 8 9 9 10 12 13 14 18 20 20 20 21 23 23 26 29 33 36 40 44 48 58 68 76 79 63 80 76 65 62 60 63 67 75 89 87 91 92 86 83 85 84 89 95 96 91 77 78
7 8 8 12 10 10 11 14 15 16 19 20 20 20 22 22 24 29 32 34 38 42 53 63 74 74 52 73 81 82 78 76 71 70 72 74 91 93 94 81 84 90 91 76 87 88 92 80 70
8 7 8 9 10 28 10 23 13 14 17 18 18 19 20 22 23 24 27 30 32 37 45 57 71 77 65 56 72 77 71 66 62 64 62 65 80 83 84 90 91 75 84 81 82 80 84 90 82
8 7 7 8 10 7 9 9 11 11 14 15 16 16 18 20 22 24 25 26 28 33 39 49 66 71 66 55 62 73 73 65 67 66 69 76 74 82 86 87 92 93 92 83 93 88 87 88 94
6 8 8 8 8 10 8 8 9 7 10 11 12 13 15 18 20 22 23 25 28 30 37 44 62 53 56 61 48 64 72 75 64 67 68 69 66 67 70 76 89 94 93 92 80 77 76 71 79
7 7 9 9 8 8 6 7 8 7 6 7 9 12 14 17 19 22 24 24 27 30 36 42 56 65 44 44 47 47 51 75 78 72 73 69 63 58 59 72 83 92 86 86 87 89 85 81 86
8 7 8 13 10 8 7 8 7 6 6 6 8 10 12 14 16 18 23 24 26 29 34 42 48 67 50 59 46 49 48 72 74 78 73 70 66 65 68 73 82 88 92 93 93 93 87 88 93
9 9 6 6 6 8 7 6 8 6 8 8 8 10 11 8 10 13 16 24 28 30 33 40 46 60 59 71 66 51 51 54 72 73 74 74 76 76 66 70 73 81 91 96 96 96 94 97 98
8 7 7 6 11 12 7 8 8 9 8 8 8 10 7 9 12 18 19 21 29 32 33 40 46 52 61 60 71 69 54 50 52 64 74 74 70 66 49 55 67 82 81 88 80 96 93 94 78
8 9 8 6 6 9 10 8 6 10 8 8 8 10 8 10 11 13 17 22 29 35 36 38 46 51 60 64 59 68 73 79 54 79 89 63 65 78 53 46 64 97 99 99 81 67 72 83 60
7 7 7 8 10 7 7 9 6 8 7 8 8 10 11 12 14 17 22 25 27 33 38 43 47 52 56 66 60 62 71 72 70 86 84 77 87 72 49 70 94 96 98 91 96 83 92 94 95